Vorticity
4 4 4 4 4 5 6 7 8 10 11 14 17 13 4 2 3 4 3 2 4 8 11 18 21 17 11 7 7 5 4 5 4 3 5 5 5 1 -2 4 4 0 3 4 1 3 4 4 5 7 6 6 9 8 5 7 8 7 8 7 7 9 9 9 10 7 0 -1 2 3 4 5 8 7 3 4 6 3 2 1 -0 1 3 6 6 -0 1
5 4 4 4 4 6 8 10 10 11 14 15 15 10 3 2 3 2 1 3 9 14 17 18 13 8 6 4 6 5 3 5 7 4 2 2 5 3 -2 1 4 2 3 5 4 4 5 5 7 8 8 8 10 8 6 8 8 8 7 6 9 11 9 8 10 11 10 9 10 7 4 6 8 6 3 5 6 1 1 2 -0 3 6 3 4 2 1
4 4 4 4 5 8 10 12 11 11 14 12 8 4 3 4 4 3 4 8 14 16 14 11 6 5 6 4 5 6 4 3 3 4 3 0 2 4 2 2 3 3 4 5 5 6 7 8 9 9 9 9 9 8 8 8 7 7 6 6 9 9 8 6 6 11 15 14 14 11 8 7 6 5 5 6 7 4 5 6 3 6 7 3 6 5 2
4 4 5 5 8 11 11 12 11 12 12 6 3 4 3 2 3 4 9 12 15 13 7 4 5 5 6 5 3 4 4 3 1 1 4 2 0 2 4 3 3 4 5 5 7 7 8 9 10 10 9 9 8 8 8 7 6 7 6 7 9 8 6 2 1 7 8 4 6 6 6 4 2 5 7 7 6 4 5 6 3 6 8 4 5 4 8
3 4 5 7 11 12 11 10 9 10 7 2 3 4 0 1 4 6 13 16 13 8 4 3 5 6 6 5 3 3 3 3 2 -0 -0 1 0 1 4 5 5 6 6 7 9 9 9 10 10 10 8 9 9 8 8 7 5 7 7 8 9 8 4 0 1 6 6 3 5 6 4 2 2 7 8 6 5 5 6 6 5 8 6 3 10 17 24
3 5 7 10 12 12 12 10 6 5 2 0 6 4 -1 4 7 9 16 17 9 3 2 3 5 5 6 4 3 2 -0 -1 1 -0 -1 2 3 4 5 6 7 8 7 8 9 9 9 9 9 9 8 9 9 7 6 5 6 8 8 8 8 5 3 1 2 4 4 3 4 4 3 3 5 7 5 4 6 8 8 8 8 7 5 12 24 23 22
4 7 10 11 12 11 11 9 5 4 0 0 4 1 1 8 9 10 17 16 6 1 1 4 5 4 3 2 0 -1 -2 -2 1 2 3 5 6 7 8 7 7 8 7 8 9 8 8 8 8 8 8 8 7 6 5 6 8 8 7 7 6 3 2 3 3 5 5 3 2 4 4 5 6 5 4 6 7 7 8 8 7 6 12 23 22 8 9
6 10 11 12 12 11 9 7 4 1 1 2 1 0 7 11 8 12 19 13 4 -0 -0 3 6 3 0 -1 -2 -2 0 2 4 6 6 8 8 8 8 8 7 8 8 9 10 9 8 8 8 9 9 8 6 5 6 7 8 7 6 7 6 3 4 4 5 7 7 3 2 3 4 5 4 3 5 6 5 6 8 6 7 13 17 16 9 2 9
8 11 12 11 10 9 7 5 3 1 3 4 1 5 12 10 8 15 19 11 3 -1 -1 2 4 3 0 -1 -1 1 3 4 7 8 7 8 10 9 9 9 8 9 10 10 10 9 8 8 9 10 9 8 6 6 7 8 7 6 6 6 4 3 5 6 6 8 9 7 5 3 4 5 4 4 5 5 5 8 8 6 11 19 16 6 5 11 13
11 12 11 10 8 8 6 5 5 5 5 5 5 11 12 8 12 18 16 9 4 0 -0 2 4 3 0 -0 1 3 4 6 8 8 7 9 11 10 10 10 9 10 11 10 9 8 8 8 9 10 8 7 7 7 7 7 6 6 6 5 4 3 6 8 7 7 9 8 5 4 5 6 6 7 7 6 8 8 5 6 11 17 12 3 4 12 14
12 11 10 7 6 7 7 7 8 7 6 7 10 12 10 9 17 20 11 6 4 2 2 3 5 4 1 1 2 4 6 8 8 8 9 11 11 11 12 11 10 11 10 9 9 8 9 9 9 9 7 6 6 7 7 6 6 7 6 4 4 4 5 8 7 6 9 7 4 6 8 8 8 7 5 8 10 6 3 7 11 11 9 6 9 14 21
12 10 7 5 5 8 9 9 9 6 7 10 11 11 11 14 20 19 8 3 4 5 5 5 5 3 3 3 4 6 8 8 8 9 10 11 12 12 13 11 10 11 9 9 10 8 9 10 8 8 6 5 7 7 6 6 6 7 6 4 4 4 4 7 7 6 7 5 5 9 10 9 8 5 6 9 8 5 2 5 13 18 17 17 17 19 28
11 8 5 4 7 9 9 7 7 6 8 10 11 11 13 16 18 15 8 4 5 7 6 6 5 3 3 5 5 6 7 6 7 8 9 12 12 12 12 11 10 10 8 8 9 7 8 9 7 6 5 6 7 5 5 7 6 5 5 3 4 5 5 7 7 6 7 5 7 9 6 6 6 5 9 9 5 7 3 0 14 25 20 14 12 17 33
10 6 3 5 8 8 6 5 6 7 9 11 12 13 14 16 16 13 10 7 7 8 6 5 6 4 4 5 5 5 6 6 7 9 10 12 12 11 12 11 10 10 9 9 8 7 8 9 6 6 6 6 6 5 6 7 6 5 5 4 5 5 6 7 7 7 7 4 5 6 4 6 6 4 9 9 5 10 5 -2 11 22 13 8 13 24 41
8 4 3 6 8 6 4 6 7 8 10 10 12 16 17 16 16 12 10 9 8 8 7 5 5 6 5 6 6 7 7 7 9 11 12 12 12 12 12 10 9 9 9 8 8 8 9 8 5 5 5 6 7 6 6 7 5 5 5 4 5 5 6 7 6 6 7 3 4 8 8 7 6 6 9 7 5 9 6 1 11 17 12 14 22 33 43
6 3 3 5 7 5 4 6 6 7 9 8 10 15 17 17 17 14 12 12 9 8 8 6 7 8 7 8 10 9 9 10 11 12 12 11 12 13 11 10 9 9 9 8 8 9 9 7 5 5 5 7 8 7 7 6 4 4 4 4 5 5 5 6 5 6 7 4 4 8 7 4 5 8 8 5 6 9 5 4 12 16 18 24 30 38 43
4 2 3 5 5 5 4 6 7 7 9 9 8 11 13 14 16 15 14 14 10 10 12 10 10 12 11 11 13 11 11 13 12 12 12 11 13 12 10 10 9 8 9 9 8 8 8 6 5 5 5 7 7 6 7 6 5 5 5 5 6 5 4 6 6 6 6 4 4 6 7 5 6 7 6 4 7 7 5 9 18 21 24 28 33 41 40
3 2 3 4 5 5 4 5 6 6 8 9 8 10 10 10 12 13 14 15 13 13 14 13 13 14 13 13 13 12 12 13 11 11 12 12 13 12 9 9 9 9 9 9 8 8 6 5 6 6 6 7 7 6 7 7 6 6 6 6 5 5 5 7 6 5 6 6 5 4 7 8 5 4 5 6 7 6 8 16 24 24 21 23 34 43 34
3 2 2 3 4 4 4 5 6 6 7 9 9 9 9 7 8 10 10 13 14 14 14 14 14 14 13 13 13 12 12 12 11 12 13 12 12 12 9 9 9 9 9 8 8 8 6 5 6 6 6 7 6 7 8 6 5 6 6 6 6 6 6 6 4 4 7 8 5 3 8 12 7 4 8 11 11 10 10 14 21 23 17 19 36 44 28
3 2 2 3 3 3 3 4 4 5 6 7 6 6 6 6 8 9 9 11 13 13 13 14 14 13 13 13 13 12 12 12 11 12 14 13 12 11 9 9 9 9 9 9 8 7 6 6 6 6 7 7 7 7 7 5 5 6 5 5 6 6 4 3 3 6 8 8 6 6 8 10 8 7 10 13 13 11 8 7 15 25 23 21 34 39 22
2 2 2 3 3 3 2 3 3 3 4 4 5 6 6 5 6 7 7 10 11 11 12 14 13 13 13 12 12 12 12 12 12 14 15 14 12 10 8 8 9 9 9 9 8 7 8 7 6 6 7 7 7 7 6 4 4 6 6 4 5 4 2 2 5 7 9 9 7 5 5 7 7 7 8 12 11 9 10 10 14 26 31 28 31 32 17
2 2 1 2 2 2 2 2 2 3 3 4 7 8 5 2 3 4 5 7 9 8 10 11 11 13 13 12 11 11 11 12 13 15 16 14 12 10 8 9 9 8 9 9 8 8 8 6 6 7 6 6 8 6 5 5 4 5 5 4 4 3 3 4 4 5 8 9 6 5 5 5 4 4 7 10 10 11 15 15 14 23 34 35 31 24 13
1 1 1 1 2 2 2 1 2 2 2 3 5 5 2 -1 1 3 3 5 7 8 8 8 9 11 13 13 12 12 11 13 15 16 16 15 12 9 8 9 10 8 9 9 8 7 7 5 6 7 6 7 8 6 5 5 4 4 5 5 4 3 2 3 4 3 5 7 7 9 9 6 4 7 9 8 7 12 17 17 16 21 30 40 39 24 10
0 1 1 1 1 2 2 1 2 2 2 3 3 3 2 -0 -0 2 3 4 5 6 7 6 6 9 11 12 13 14 13 14 16 17 17 15 12 9 9 10 10 9 9 9 7 7 7 6 6 7 7 8 8 6 5 5 5 4 5 4 2 1 1 2 4 4 4 3 7 11 12 8 5 6 9 6 4 11 18 18 20 22 26 41 48 29 9
-1 0 1 0 1 2 2 1 2 2 2 2 1 2 3 1 -0 2 2 1 3 5 5 5 5 7 9 11 14 16 14 15 17 18 18 15 11 10 10 9 8 9 9 8 7 7 7 7 7 6 7 7 6 5 5 5 5 4 3 2 2 3 4 2 3 5 6 4 4 7 11 10 4 1 6 7 2 7 16 17 21 25 26 38 51 36 10
-1 0 1 0 1 2 2 1 2 1 1 1 1 1 3 1 1 3 1 -1 2 5 4 3 4 6 9 13 16 17 14 14 17 17 16 14 11 10 11 9 8 10 9 8 8 8 7 8 7 6 7 7 6 6 5 4 4 4 3 4 4 4 4 2 1 4 6 5 4 5 9 15 12 5 7 9 4 6 13 14 20 28 28 32 47 44 17
-0 -0 1 0 1 2 2 2 2 1 0 1 0 1 3 2 1 3 1 -1 2 4 3 3 3 4 7 12 16 16 13 11 14 17 16 13 11 11 10 8 8 10 10 8 9 8 7 7 6 5 7 6 5 6 5 4 5 5 3 4 5 4 4 4 3 4 7 8 9 7 8 14 14 8 8 9 5 6 12 13 19 30 33 31 39 44 26
1 -0 1 1 0 2 2 2 2 2 1 0 -0 1 3 2 1 2 1 -1 1 3 3 3 2 2 6 11 14 14 11 8 13 17 15 12 11 11 10 9 10 11 10 10 10 8 7 7 6 6 7 6 5 6 5 4 4 4 3 5 5 4 5 5 3 5 8 10 10 8 7 10 10 8 9 9 5 7 14 18 20 26 32 33 34 35 25
3 -0 0 1 0 1 2 2 2 2 1 -0 -0 1 2 2 1 0 1 0 0 1 2 3 2 2 4 8 12 13 9 8 13 17 15 13 13 12 10 11 11 10 10 10 9 7 7 7 6 7 6 4 5 5 4 4 4 4 4 5 3 1 3 3 2 4 7 9 9 8 8 9 8 8 10 10 7 9 15 20 23 25 29 35 36 27 16
4 1 0 1 0 1 2 2 2 3 2 1 0 0 1 2 1 -0 -0 0 -0 0 2 2 2 2 4 7 11 12 9 8 12 15 15 16 16 12 11 12 11 10 11 10 8 8 7 6 6 6 4 3 5 5 3 4 5 4 5 5 3 1 2 2 4 6 7 6 7 8 9 9 6 6 10 10 9 10 14 18 24 28 31 38 40 27 12
4 1 0 1 1 1 2 2 2 2 2 1 1 1 1 2 1 0 0 0 -1 -0 1 2 2 3 3 5 10 12 9 8 9 11 15 19 18 14 12 12 10 10 11 9 8 9 8 5 5 6 4 3 4 4 3 3 4 3 4 4 3 2 2 1 4 8 8 6 5 6 11 12 7 4 8 11 9 9 12 15 22 29 33 39 41 29 13
4 1 0 1 1 1 2 2 2 2 1 1 2 2 1 1 1 1 1 1 -0 -0 1 1 3 3 3 5 8 11 10 8 8 10 15 20 19 14 11 11 9 9 10 9 8 8 7 5 5 5 4 3 3 3 4 4 3 4 5 4 3 3 1 1 4 8 10 8 5 6 11 14 10 5 7 10 10 10 12 14 21 29 33 37 41 34 16
4 1 1 1 1 1 2 2 2 2 2 2 3 2 1 1 2 3 2 1 0 0 0 1 2 3 3 5 8 10 10 8 9 12 17 19 18 14 11 10 9 9 9 8 8 7 6 6 5 4 2 3 4 4 4 3 3 4 4 4 4 3 1 1 3 6 9 8 5 6 10 11 8 5 6 9 10 11 14 16 20 27 31 34 43 42 23
4 1 1 1 1 1 1 2 2 2 2 2 3 2 2 3 3 3 3 2 1 1 0 0 1 2 3 5 8 10 10 7 7 13 18 17 16 16 13 9 9 9 8 8 8 8 5 5 5 3 3 5 5 4 4 3 4 5 3 3 5 5 2 0 0 3 8 8 5 7 11 11 7 4 5 9 9 10 16 19 20 25 30 32 41 46 29
4 1 1 1 0 1 1 2 2 2 2 3 3 3 4 5 4 3 3 3 2 2 1 0 1 1 3 6 8 9 10 6 3 10 17 18 16 17 14 9 9 10 8 7 8 7 5 5 5 4 5 6 5 4 5 5 5 5 3 4 7 6 3 3 2 2 6 8 7 8 12 12 8 3 5 9 9 10 16 19 18 25 30 30 38 45 31
5 2 1 0 0 1 2 2 2 2 2 3 4 5 6 5 3 3 4 3 3 3 2 1 1 1 2 6 7 8 11 7 -0 3 14 21 19 16 14 11 10 9 7 7 7 6 6 7 7 4 4 6 6 5 6 5 4 5 5 6 7 5 3 3 3 3 5 8 8 8 11 12 8 5 6 10 10 11 16 18 18 24 29 29 35 41 29
6 3 1 0 -0 1 1 2 2 2 2 3 5 7 6 4 3 4 4 3 4 4 3 2 2 1 2 6 7 8 11 9 1 -1 9 19 20 16 13 11 10 8 7 6 6 7 8 7 5 4 5 7 7 7 6 5 5 6 6 6 5 4 2 2 3 3 5 7 8 10 13 13 11 8 8 10 11 12 16 19 20 24 27 29 33 33 23
6 4 2 0 0 1 2 3 3 3 4 6 7 7 5 4 4 4 3 3 4 4 3 3 3 2 2 6 8 8 10 11 5 -1 3 14 20 18 14 12 10 8 8 6 6 8 8 6 5 6 7 7 7 7 6 6 5 5 5 4 4 3 1 1 3 5 7 8 11 14 15 14 11 9 8 9 12 13 15 19 24 26 28 32 33 29 20
7 5 3 2 3 3 4 4 5 6 8 8 7 7 5 4 4 3 2 2 4 4 4 4 4 2 4 7 8 8 10 12 9 2 2 10 18 18 14 12 11 9 8 8 7 8 8 6 6 8 8 7 7 6 5 5 5 4 4 3 3 2 1 1 3 6 8 9 10 13 13 11 9 8 7 7 9 12 14 19 26 29 31 34 34 27 18
8 7 6 6 6 6 7 8 8 9 9 8 7 6 5 3 2 2 1 3 4 4 5 5 3 3 6 8 8 8 10 11 10 6 2 7 15 17 14 12 11 9 8 8 7 7 8 8 7 8 7 7 7 6 5 5 6 4 3 3 3 2 1 1 2 5 7 8 8 10 11 10 8 9 9 8 9 10 11 17 27 33 33 33 33 27 17
10 10 10 10 9 9 10 10 10 9 8 7 6 5 3 2 2 1 3 5 6 5 5 5 3 4 8 9 8 8 9 10 11 9 4 4 11 16 14 12 12 11 9 9 8 8 9 8 7 7 7 6 6 6 6 6 5 3 2 3 4 3 2 1 1 3 6 8 9 10 11 11 10 10 9 9 10 12 10 13 24 33 34 33 34 29 17
11 10 11 10 10 10 11 10 9 8 7 6 5 3 2 2 2 3 6 7 6 6 5 4 3 6 10 9 8 8 8 9 12 11 5 2 8 14 14 13 12 11 9 9 8 8 8 8 7 6 6 6 6 7 7 6 5 4 3 4 4 4 3 2 1 2 6 9 9 11 12 11 11 11 11 8 9 13 13 12 20 29 33 35 39 34 19
9 9 9 8 9 10 9 8 8 7 6 5 4 3 3 4 5 7 9 7 6 6 4 3 5 9 10 8 8 8 7 10 14 12 4 1 6 12 13 13 13 11 10 10 8 7 8 8 6 5 6 7 8 8 6 5 5 5 4 4 4 4 3 2 1 2 6 8 9 10 12 11 9 11 13 10 8 12 15 15 18 25 30 35 42 40 23
7 8 8 8 9 8 7 8 8 7 6 6 6 6 7 8 8 9 8 6 5 5 3 3 9 12 9 7 7 7 6 11 15 12 4 2 5 9 11 13 13 11 11 10 8 6 7 7 7 7 7 7 7 7 6 5 5 4 4 4 4 3 3 2 1 1 5 9 10 10 12 11 8 10 14 14 10 12 15 15 16 23 30 36 43 43 28
7 7 8 8 8 7 7 7 8 7 7 8 9 9 9 9 8 7 6 4 4 4 4 7 12 11 8 7 7 5 7 13 15 10 5 3 4 7 10 11 12 12 11 9 7 7 7 8 9 8 7 6 7 7 7 6 5 4 3 4 4 3 3 3 1 1 5 9 10 10 11 11 9 9 14 16 13 13 16 16 14 20 29 36 41 43 32
7 7 7 6 7 7 7 7 8 8 8 8 8 7 7 6 5 4 4 3 4 4 7 11 11 8 7 8 6 4 9 14 13 8 6 5 4 5 9 11 12 12 11 9 8 8 8 9 10 8 5 5 8 8 8 7 5 3 3 4 4 4 4 3 1 2 6 9 10 10 11 11 9 8 12 18 16 13 14 18 18 19 26 35 41 42 32
5 5 5 5 6 6 6 6 6 5 5 5 4 4 4 4 4 3 3 4 5 7 10 11 9 7 7 8 5 5 11 15 12 8 6 5 3 5 9 10 11 12 10 9 9 8 8 9 9 8 6 7 8 8 8 7 5 3 2 3 3 4 4 3 1 2 7 9 9 10 10 11 10 8 10 16 19 14 13 18 22 22 24 34 42 42 31
4 4 4 4 4 4 4 4 3 2 2 2 2 3 3 3 3 4 5 6 8 10 11 9 7 7 8 7 5 7 12 14 10 7 6 5 5 6 8 10 12 12 10 9 9 7 7 8 10 9 8 7 8 8 8 7 4 2 2 4 4 4 4 3 1 3 7 9 9 10 10 10 10 9 8 12 17 17 15 18 24 24 24 32 43 44 32
3 2 2 2 2 2 2 1 1 1 2 2 2 3 4 4 4 6 7 9 10 11 9 7 7 8 7 6 7 10 13 13 10 6 6 6 7 6 7 10 12 12 9 8 8 7 6 8 10 10 9 8 8 8 8 6 4 2 2 4 5 4 3 3 2 4 8 9 9 10 11 10 9 8 8 10 15 19 20 21 23 24 24 31 42 44 31
5 3 3 2 3 2 2 2 2 3 3 4 5 5 5 6 7 8 9 10 11 9 7 7 8 8 7 7 9 11 12 11 8 6 7 7 7 6 7 10 12 12 10 8 8 7 7 8 9 10 9 8 8 8 8 6 3 2 2 4 4 4 3 3 2 4 8 9 8 9 11 10 7 7 10 10 12 17 22 24 26 24 24 30 42 44 31
7 7 6 5 5 4 4 5 5 6 6 7 7 7 7 8 9 10 10 10 9 7 7 8 8 7 7 9 10 10 11 10 8 7 7 7 6 6 9 11 12 11 10 9 8 8 7 8 8 9 10 9 8 8 8 6 4 2 3 4 4 3 3 3 3 5 8 9 8 9 10 9 6 8 10 10 10 14 19 25 29 28 25 30 44 48 34
9 9 9 8 7 7 7 7 8 8 8 8 8 8 9 9 9 10 9 8 6 6 7 8 7 6 8 11 10 9 9 10 8 7 7 7 6 7 10 11 11 10 9 9 10 8 7 7 8 9 10 9 8 7 8 7 4 2 2 3 4 4 3 2 3 6 8 9 9 10 10 9 7 8 8 8 10 13 16 21 29 32 28 30 43 50 38
Height
5845 5845 5845 5845 5844 5844 5843 5842 5842 5842 5841 5841 5839 5838 5838 5838 5838 5837 5836 5835 5834 5832 5830 5830 5829 5827 5826 5825 5823 5822 5820 5819 5818 5816 5814 5813 5811 5809 5807 5805 5803 5801 5798 5795 5793 5789 5786 5783 5780 5776 5773 5769 5765 5762 5758 5754 5751 5747 5743 5739 5734 5730 5725 5722 5722 5720 5715 5711 5706 5701 5695 5688 5681 5674 5666 5660 5654 5647 5640 5632 5623 5618 5615 5608 5597 5588 5584
5847 5847 5846 5846 5846 5845 5844 5844 5843 5843 5842 5842 5840 5839 5839 5839 5839 5838 5837 5836 5834 5832 5831 5830 5829 5828 5827 5825 5824 5822 5821 5819 5818 5816 5815 5813 5811 5809 5807 5804 5802 5799 5797 5794 5791 5788 5784 5781 5777 5774 5770 5767 5763 5759 5756 5752 5748 5745 5741 5736 5731 5726 5720 5716 5713 5710 5706 5702 5699 5695 5691 5685 5678 5671 5663 5657 5652 5645 5639 5632 5622 5613 5609 5604 5591 5580 5578
5848 5848 5848 5847 5847 5846 5845 5845 5844 5844 5843 5843 5841 5841 5840 5840 5839 5838 5837 5836 5834 5832 5832 5831 5830 5829 5827 5826 5824 5823 5821 5820 5818 5816 5814 5812 5810 5808 5806 5803 5801 5798 5795 5792 5789 5785 5782 5779 5775 5771 5768 5764 5760 5757 5753 5750 5746 5743 5739 5735 5730 5724 5719 5713 5708 5702 5693 5687 5684 5681 5678 5677 5675 5670 5661 5655 5649 5643 5635 5627 5617 5607 5601 5599 5587 5570 5564
5850 5849 5849 5849 5848 5847 5846 5846 5845 5845 5844 5843 5843 5842 5841 5840 5840 5839 5837 5836 5834 5833 5833 5832 5830 5829 5828 5826 5825 5823 5821 5820 5818 5816 5814 5812 5809 5807 5804 5802 5799 5796 5792 5789 5786 5783 5780 5776 5773 5769 5765 5762 5758 5755 5751 5748 5744 5741 5737 5733 5729 5724 5718 5712 5707 5702 5694 5687 5683 5679 5673 5669 5667 5664 5658 5651 5644 5636 5627 5618 5609 5599 5589 5587 5581 5564 5550
5851 5851 5850 5850 5849 5848 5847 5847 5846 5846 5845 5844 5844 5843 5842 5841 5840 5839 5837 5836 5835 5834 5833 5832 5831 5829 5828 5826 5825 5823 5821 5820 5818 5815 5813 5811 5808 5805 5803 5800 5797 5794 5791 5788 5784 5781 5777 5774 5770 5767 5763 5759 5756 5752 5749 5745 5742 5738 5734 5730 5726 5722 5717 5711 5706 5702 5695 5687 5682 5678 5672 5665 5661 5657 5652 5646 5640 5632 5624 5614 5602 5592 5579 5571 5568 5557 5540
5852 5852 5851 5851 5850 5849 5848 5847 5847 5847 5846 5845 5845 5843 5842 5841 5840 5839 5838 5836 5835 5834 5834 5832 5831 5830 5828 5826 5825 5823 5821 5819 5817 5814 5812 5809 5807 5804 5801 5798 5795 5792 5789 5786 5783 5779 5775 5772 5769 5765 5761 5757 5754 5750 5746 5743 5739 5736 5732 5728 5723 5719 5714 5709 5704 5701 5694 5686 5680 5676 5669 5662 5656 5651 5645 5640 5634 5625 5618 5609 5597 5586 5573 5560 5552 5544 5533
5853 5853 5852 5851 5851 5850 5849 5848 5848 5847 5847 5846 5845 5844 5843 5842 5840 5839 5838 5837 5835 5835 5834 5833 5831 5829 5828 5826 5824 5822 5820 5818 5816 5813 5811 5808 5805 5802 5799 5796 5793 5790 5787 5783 5780 5777 5774 5770 5767 5763 5759 5755 5751 5747 5744 5741 5737 5733 5729 5724 5720 5715 5711 5705 5701 5699 5693 5685 5678 5673 5666 5658 5652 5646 5639 5632 5626 5618 5610 5602 5590 5577 5566 5553 5541 5532 5524
5854 5854 5853 5852 5851 5851 5850 5849 5849 5848 5847 5847 5845 5844 5843 5842 5840 5839 5838 5837 5836 5835 5834 5833 5831 5829 5827 5826 5824 5822 5819 5817 5814 5812 5809 5806 5803 5800 5797 5794 5791 5788 5784 5781 5777 5774 5770 5767 5763 5760 5756 5752 5749 5745 5741 5737 5734 5730 5725 5721 5716 5712 5707 5702 5697 5694 5691 5684 5677 5670 5663 5655 5647 5640 5633 5626 5620 5614 5606 5594 5579 5563 5551 5542 5532 5521 5511
5855 5854 5854 5853 5852 5852 5851 5850 5850 5849 5848 5847 5846 5844 5843 5842 5840 5839 5838 5837 5836 5835 5834 5832 5831 5829 5827 5825 5823 5821 5819 5816 5813 5810 5808 5804 5801 5798 5795 5791 5788 5785 5782 5778 5774 5771 5767 5763 5760 5757 5753 5749 5746 5742 5738 5735 5731 5727 5721 5717 5712 5707 5702 5698 5693 5689 5685 5680 5674 5667 5659 5651 5643 5634 5627 5619 5611 5603 5594 5582 5567 5552 5539 5529 5521 5510 5498
5856 5855 5854 5854 5853 5852 5852 5851 5850 5849 5848 5847 5845 5844 5843 5841 5840 5839 5838 5837 5836 5834 5833 5832 5830 5828 5826 5824 5822 5820 5817 5815 5812 5809 5806 5803 5799 5796 5792 5789 5786 5783 5779 5776 5772 5768 5765 5761 5757 5754 5750 5746 5742 5739 5735 5732 5728 5724 5719 5713 5708 5702 5697 5692 5686 5681 5677 5672 5667 5661 5652 5645 5637 5627 5616 5607 5597 5589 5582 5572 5559 5548 5535 5521 5510 5501 5490
5856 5856 5855 5855 5854 5853 5853 5852 5851 5850 5848 5847 5846 5844 5843 5841 5840 5838 5837 5836 5835 5834 5833 5831 5830 5828 5826 5824 5822 5819 5816 5813 5810 5807 5804 5800 5797 5794 5790 5787 5784 5781 5777 5774 5770 5766 5763 5759 5755 5751 5747 5744 5740 5736 5732 5729 5724 5720 5715 5709 5704 5698 5692 5686 5679 5673 5669 5663 5658 5653 5646 5636 5627 5618 5608 5596 5585 5576 5571 5564 5552 5543 5535 5522 5508 5497 5487
5857 5857 5856 5855 5855 5854 5853 5852 5851 5850 5848 5847 5845 5843 5842 5841 5839 5838 5837 5836 5835 5834 5832 5831 5829 5827 5825 5823 5820 5818 5815 5811 5808 5805 5802 5798 5795 5792 5788 5785 5782 5779 5775 5772 5768 5764 5760 5757 5753 5749 5746 5742 5738 5734 5730 5725 5721 5716 5711 5705 5700 5694 5688 5682 5675 5668 5662 5656 5648 5640 5633 5625 5616 5609 5600 5590 5580 5572 5567 5564 5554 5538 5525 5513 5500 5490 5481
5858 5857 5857 5856 5856 5855 5854 5853 5852 5850 5848 5847 5845 5843 5842 5840 5839 5838 5837 5836 5835 5833 5832 5830 5828 5826 5824 5821 5819 5816 5813 5810 5807 5804 5800 5797 5793 5789 5786 5783 5780 5777 5773 5770 5766 5763 5759 5755 5751 5748 5745 5741 5736 5732 5728 5723 5718 5713 5707 5702 5696 5690 5684 5678 5671 5664 5657 5651 5642 5631 5621 5614 5605 5598 5591 5582 5573 5563 5552 5546 5542 5527 5510 5497 5488 5481 5474
5859 5858 5858 5857 5857 5856 5855 5854 5852 5850 5848 5846 5845 5843 5842 5840 5839 5838 5837 5836 5834 5832 5831 5829 5827 5825 5822 5820 5817 5814 5811 5808 5805 5802 5798 5794 5791 5787 5784 5781 5778 5774 5771 5767 5764 5761 5757 5754 5750 5747 5743 5740 5736 5731 5726 5721 5716 5710 5705 5699 5693 5687 5680 5674 5666 5658 5650 5642 5637 5629 5620 5611 5599 5589 5583 5573 5561 5551 5537 5526 5524 5519 5506 5493 5482 5472 5463
5860 5859 5859 5858 5858 5857 5856 5854 5852 5851 5849 5847 5845 5844 5842 5840 5839 5838 5836 5835 5833 5832 5830 5828 5826 5823 5821 5818 5816 5813 5809 5806 5803 5800 5796 5792 5789 5785 5782 5779 5775 5772 5768 5765 5761 5758 5755 5751 5748 5744 5741 5738 5733 5728 5724 5718 5713 5707 5701 5696 5690 5683 5676 5669 5660 5653 5645 5636 5628 5619 5610 5603 5593 5582 5576 5569 5557 5548 5538 5525 5519 5515 5503 5489 5476 5463 5453
5861 5860 5860 5859 5858 5857 5856 5855 5853 5851 5849 5848 5846 5844 5842 5841 5839 5838 5836 5834 5833 5831 5829 5827 5824 5822 5819 5817 5814 5811 5807 5804 5801 5797 5794 5790 5787 5783 5780 5776 5773 5769 5766 5762 5759 5755 5752 5748 5744 5740 5736 5733 5729 5725 5720 5715 5710 5705 5699 5693 5687 5680 5673 5666 5657 5649 5642 5632 5623 5612 5601 5594 5587 5575 5567 5562 5554 5542 5532 5522 5516 5509 5495 5479 5467 5456 5447
5861 5861 5860 5860 5859 5858 5857 5855 5854 5852 5850 5848 5846 5844 5843 5841 5839 5838 5836 5834 5832 5830 5827 5825 5823 5820 5818 5815 5812 5809 5805 5802 5799 5795 5791 5788 5784 5781 5778 5774 5771 5767 5763 5760 5756 5753 5749 5745 5740 5736 5732 5729 5725 5720 5716 5711 5706 5702 5696 5690 5684 5677 5670 5662 5654 5646 5638 5629 5622 5615 5603 5591 5584 5574 5562 5555 5550 5539 5523 5507 5497 5488 5479 5468 5457 5449 5442
5862 5861 5861 5860 5859 5858 5857 5856 5854 5852 5850 5848 5846 5845 5843 5841 5839 5837 5835 5833 5831 5829 5826 5824 5821 5818 5816 5813 5810 5807 5803 5800 5796 5793 5789 5786 5782 5779 5775 5772 5768 5765 5761 5757 5754 5750 5746 5742 5738 5733 5729 5725 5720 5715 5711 5706 5700 5696 5691 5686 5681 5675 5667 5660 5651 5643 5635 5625 5617 5613 5605 5591 5581 5574 5562 5548 5540 5531 5516 5496 5480 5469 5464 5459 5451 5443 5437
5862 5862 5861 5860 5859 5858 5857 5856 5854 5852 5850 5848 5847 5845 5843 5841 5839 5837 5835 5832 5830 5828 5825 5823 5820 5817 5814 5811 5808 5805 5801 5798 5795 5791 5787 5784 5780 5777 5773 5770 5766 5762 5759 5755 5751 5747 5744 5739 5735 5731 5726 5721 5716 5711 5706 5702 5697 5691 5685 5680 5674 5668 5661 5654 5646 5638 5631 5621 5611 5606 5602 5591 5577 5570 5561 5543 5524 5510 5499 5487 5475 5464 5456 5451 5446 5440 5434
5862 5862 5861 5860 5859 5858 5857 5856 5854 5852 5850 5849 5848 5846 5843 5841 5839 5837 5834 5832 5830 5827 5824 5822 5819 5816 5813 5810 5806 5803 5800 5796 5793 5789 5785 5782 5778 5775 5771 5768 5764 5760 5756 5752 5749 5745 5741 5737 5733 5728 5723 5718 5713 5708 5703 5697 5692 5686 5680 5673 5667 5660 5654 5648 5639 5629 5621 5614 5604 5593 5587 5579 5565 5553 5544 5531 5513 5497 5487 5479 5472 5463 5453 5445 5440 5435 5429
5862 5861 5861 5860 5859 5858 5857 5856 5854 5853 5851 5849 5847 5845 5842 5841 5839 5836 5835 5833 5830 5827 5824 5821 5818 5815 5812 5809 5805 5802 5799 5795 5791 5787 5784 5780 5776 5773 5769 5766 5762 5758 5753 5750 5746 5742 5738 5734 5729 5725 5720 5715 5710 5706 5700 5695 5689 5683 5676 5669 5663 5656 5648 5641 5633 5622 5610 5601 5593 5584 5577 5569 5556 5540 5530 5523 5514 5502 5490 5479 5469 5459 5449 5439 5432 5429 5425
5862 5861 5861 5860 5860 5858 5857 5856 5855 5853 5851 5849 5847 5845 5843 5842 5840 5837 5835 5833 5829 5826 5823 5820 5817 5814 5811 5808 5804 5801 5797 5793 5789 5785 5781 5778 5774 5770 5767 5763 5758 5754 5750 5746 5742 5739 5735 5731 5726 5722 5717 5713 5708 5703 5698 5693 5687 5681 5674 5667 5660 5653 5645 5636 5630 5625 5616 5602 5589 5579 5572 5566 5559 5548 5539 5532 5522 5509 5495 5482 5468 5456 5445 5435 5427 5422 5419
5861 5861 5861 5860 5860 5859 5857 5856 5855 5853 5851 5849 5847 5845 5844 5842 5840 5837 5835 5831 5828 5825 5822 5819 5816 5813 5810 5806 5803 5799 5795 5791 5787 5783 5779 5775 5771 5768 5764 5760 5755 5751 5748 5744 5740 5735 5731 5727 5723 5719 5715 5710 5706 5701 5696 5691 5685 5680 5673 5666 5658 5650 5642 5634 5626 5623 5621 5615 5603 5588 5577 5570 5565 5557 5546 5534 5522 5509 5496 5482 5470 5459 5448 5437 5426 5419 5415
5861 5861 5860 5860 5859 5858 5857 5856 5854 5852 5851 5849 5847 5846 5844 5841 5839 5836 5833 5830 5827 5824 5821 5818 5815 5812 5808 5804 5800 5796 5792 5788 5784 5780 5776 5772 5769 5765 5761 5757 5753 5749 5745 5741 5737 5733 5729 5724 5720 5716 5712 5707 5702 5697 5693 5688 5682 5676 5671 5665 5658 5649 5640 5632 5624 5615 5611 5610 5605 5594 5579 5566 5556 5547 5539 5531 5523 5514 5502 5486 5472 5461 5450 5439 5428 5418 5412
5861 5860 5860 5860 5859 5858 5857 5855 5854 5852 5850 5848 5847 5845 5843 5840 5838 5835 5832 5829 5826 5823 5820 5817 5814 5810 5806 5802 5798 5794 5790 5786 5782 5778 5774 5770 5767 5763 5759 5755 5751 5747 5742 5738 5734 5730 5726 5722 5718 5713 5709 5704 5699 5694 5689 5684 5678 5673 5667 5661 5656 5649 5640 5631 5623 5613 5604 5598 5595 5593 5587 5576 5563 5551 5541 5531 5521 5513 5502 5487 5472 5459 5449 5440 5431 5420 5410
5860 5860 5859 5859 5858 5857 5856 5855 5853 5851 5850 5848 5846 5844 5842 5839 5837 5835 5831 5828 5825 5822 5819 5816 5812 5808 5804 5800 5796 5791 5787 5783 5779 5775 5772 5768 5764 5761 5757 5753 5749 5744 5740 5736 5732 5727 5723 5719 5715 5710 5706 5701 5696 5691 5686 5680 5674 5668 5662 5655 5649 5643 5637 5629 5620 5612 5603 5595 5589 5587 5585 5580 5569 5556 5542 5527 5513 5500 5490 5479 5467 5455 5444 5435 5429 5422 5412
5859 5859 5858 5858 5857 5856 5855 5854 5852 5851 5849 5847 5845 5843 5841 5839 5836 5833 5830 5827 5824 5821 5818 5815 5811 5806 5802 5798 5794 5789 5785 5781 5777 5773 5770 5766 5762 5758 5754 5750 5746 5741 5737 5733 5729 5725 5720 5716 5712 5708 5703 5698 5693 5687 5682 5676 5669 5662 5655 5648 5641 5635 5631 5624 5615 5606 5596 5584 5574 5565 5558 5552 5545 5536 5526 5514 5501 5488 5477 5466 5455 5445 5435 5425 5418 5415 5411
5858 5858 5857 5857 5856 5855 5854 5852 5851 5849 5848 5846 5844 5842 5840 5837 5834 5832 5829 5826 5824 5820 5817 5813 5809 5805 5800 5796 5792 5787 5783 5779 5775 5771 5768 5764 5760 5756 5752 5748 5743 5739 5735 5731 5727 5722 5718 5714 5710 5705 5700 5695 5690 5684 5678 5671 5665 5657 5649 5641 5633 5625 5618 5611 5604 5596 5585 5574 5563 5553 5545 5539 5532 5522 5512 5501 5490 5477 5465 5453 5443 5435 5427 5418 5409 5403 5400
5857 5856 5856 5855 5855 5854 5853 5851 5850 5848 5847 5845 5842 5840 5838 5836 5833 5831 5828 5826 5823 5819 5815 5811 5807 5803 5798 5794 5790 5785 5782 5778 5774 5770 5766 5762 5758 5753 5749 5745 5741 5737 5733 5729 5724 5720 5716 5712 5708 5703 5698 5692 5686 5680 5674 5668 5661 5653 5645 5638 5629 5621 5612 5603 5595 5588 5582 5574 5563 5551 5540 5532 5525 5516 5504 5492 5482 5472 5461 5450 5440 5431 5422 5414 5406 5399 5393
5855 5855 5854 5854 5853 5852 5851 5850 5848 5847 5845 5843 5841 5839 5837 5835 5832 5830 5827 5824 5821 5817 5813 5809 5805 5801 5796 5792 5788 5784 5780 5776 5772 5767 5763 5759 5755 5751 5747 5743 5739 5735 5730 5726 5722 5718 5714 5710 5706 5701 5696 5690 5683 5677 5670 5664 5656 5648 5641 5634 5627 5620 5611 5601 5591 5581 5574 5569 5563 5553 5541 5529 5522 5516 5508 5496 5484 5474 5463 5451 5440 5431 5421 5412 5404 5398 5393
5853 5853 5853 5852 5852 5851 5850 5848 5847 5845 5843 5841 5839 5837 5835 5833 5830 5828 5826 5823 5819 5815 5811 5807 5803 5799 5795 5790 5786 5782 5778 5774 5770 5765 5761 5757 5752 5748 5744 5740 5736 5732 5728 5724 5719 5715 5711 5707 5703 5699 5693 5687 5681 5675 5668 5661 5655 5647 5640 5632 5623 5615 5607 5599 5590 5579 5568 5560 5556 5553 5546 5534 5522 5514 5507 5496 5482 5470 5460 5450 5439 5430 5421 5412 5403 5395 5390
5852 5851 5851 5851 5850 5849 5848 5847 5845 5843 5842 5840 5838 5835 5833 5831 5829 5826 5824 5820 5817 5813 5809 5805 5802 5798 5793 5789 5785 5780 5776 5771 5767 5763 5758 5754 5749 5745 5741 5737 5733 5729 5725 5721 5716 5712 5708 5704 5700 5696 5690 5684 5678 5672 5666 5659 5653 5646 5639 5631 5623 5613 5604 5594 5587 5579 5568 5555 5543 5536 5533 5527 5516 5504 5494 5485 5474 5463 5454 5446 5436 5427 5418 5410 5402 5395 5388
5850 5850 5850 5849 5849 5848 5847 5845 5844 5842 5840 5838 5836 5834 5832 5830 5827 5825 5822 5818 5815 5811 5807 5804 5800 5796 5792 5787 5783 5778 5773 5769 5764 5760 5755 5751 5747 5742 5738 5734 5730 5726 5722 5718 5713 5709 5705 5701 5697 5692 5687 5682 5676 5669 5663 5657 5651 5644 5637 5630 5623 5614 5605 5595 5585 5576 5567 5556 5543 5530 5520 5514 5508 5499 5490 5482 5473 5463 5452 5442 5432 5423 5416 5408 5399 5392 5386
5848 5848 5848 5848 5847 5846 5845 5844 5842 5840 5838 5836 5835 5833 5830 5828 5826 5823 5819 5816 5813 5809 5806 5802 5798 5794 5790 5786 5781 5777 5772 5768 5763 5758 5753 5749 5744 5740 5736 5732 5728 5724 5719 5715 5711 5707 5702 5698 5694 5689 5684 5678 5673 5667 5660 5654 5647 5641 5635 5628 5621 5615 5609 5602 5593 5582 5570 5561 5552 5541 5528 5518 5510 5502 5493 5483 5473 5462 5451 5440 5428 5417 5409 5402 5394 5387 5380
5847 5847 5847 5846 5846 5845 5843 5842 5840 5838 5836 5835 5833 5831 5828 5826 5823 5820 5817 5814 5810 5807 5804 5800 5796 5792 5788 5784 5779 5775 5770 5766 5761 5756 5751 5747 5742 5738 5734 5729 5725 5721 5717 5713 5708 5704 5700 5695 5690 5685 5680 5674 5669 5663 5656 5650 5643 5636 5630 5623 5616 5610 5604 5598 5592 5584 5572 5561 5551 5542 5532 5521 5511 5503 5492 5481 5470 5458 5446 5435 5424 5413 5403 5395 5389 5382 5376
5845 5845 5845 5844 5844 5842 5841 5839 5838 5836 5834 5832 5830 5828 5826 5824 5821 5818 5815 5812 5809 5806 5802 5798 5794 5790 5786 5782 5777 5773 5768 5763 5759 5754 5750 5745 5740 5736 5731 5727 5723 5718 5714 5710 5706 5701 5696 5691 5686 5681 5675 5670 5664 5658 5652 5645 5638 5631 5624 5617 5610 5602 5594 5587 5580 5575 5568 5559 5548 5539 5531 5521 5511 5502 5491 5479 5466 5452 5438 5425 5415 5406 5397 5388 5381 5375 5370
5843 5843 5843 5842 5841 5840 5839 5837 5836 5834 5832 5830 5828 5826 5824 5821 5818 5816 5813 5810 5807 5803 5800 5796 5792 5788 5784 5780 5776 5771 5766 5761 5757 5752 5748 5743 5738 5733 5729 5725 5720 5716 5711 5707 5703 5698 5693 5688 5682 5677 5671 5665 5659 5653 5646 5639 5631 5624 5617 5610 5604 5597 5589 5581 5572 5565 5560 5554 5545 5535 5525 5516 5506 5495 5484 5471 5457 5443 5430 5417 5405 5395 5388 5380 5373 5368 5363
5841 5841 5841 5840 5839 5838 5837 5835 5833 5832 5830 5828 5826 5824 5821 5818 5816 5813 5810 5807 5804 5801 5797 5794 5790 5786 5782 5778 5773 5769 5764 5759 5755 5750 5746 5741 5736 5732 5727 5722 5718 5713 5708 5704 5699 5694 5689 5684 5678 5672 5666 5660 5654 5648 5641 5633 5626 5618 5611 5604 5597 5590 5582 5574 5565 5555 5545 5536 5526 5514 5504 5494 5486 5478 5470 5461 5450 5437 5425 5413 5402 5392 5384 5378 5371 5365 5360
5839 5839 5838 5838 5837 5836 5834 5833 5831 5829 5827 5825 5823 5821 5818 5816 5813 5810 5808 5805 5802 5798 5795 5791 5787 5783 5779 5774 5770 5766 5761 5756 5752 5748 5743 5738 5734 5729 5724 5720 5715 5710 5705 5700 5695 5690 5685 5680 5675 5669 5662 5656 5650 5644 5637 5630 5623 5615 5608 5601 5593 5585 5576 5568 5558 5548 5536 5523 5511 5500 5489 5478 5469 5462 5457 5450 5443 5434 5424 5413 5401 5390 5382 5375 5368 5362 5357
5837 5837 5836 5836 5835 5833 5832 5830 5828 5827 5825 5823 5820 5818 5815 5813 5810 5807 5805 5802 5799 5796 5792 5788 5784 5780 5776 5771 5767 5763 5758 5754 5749 5745 5740 5735 5731 5726 5721 5717 5712 5707 5702 5697 5692 5687 5682 5677 5671 5665 5658 5652 5646 5640 5634 5628 5621 5613 5605 5597 5590 5582 5573 5564 5554 5544 5536 5526 5516 5505 5494 5482 5470 5460 5452 5445 5437 5429 5421 5411 5400 5388 5378 5370 5365 5359 5354
5835 5834 5834 5833 5832 5831 5829 5828 5826 5824 5822 5820 5817 5815 5812 5810 5807 5804 5802 5799 5796 5792 5789 5785 5781 5777 5773 5769 5764 5760 5755 5750 5746 5742 5737 5732 5728 5723 5718 5714 5709 5704 5699 5694 5688 5683 5678 5673 5667 5661 5654 5648 5643 5637 5631 5625 5619 5613 5605 5597 5589 5581 5574 5566 5557 5546 5537 5529 5520 5509 5499 5488 5475 5463 5453 5445 5436 5426 5416 5407 5398 5387 5377 5368 5361 5356 5351
5832 5831 5831 5830 5829 5828 5826 5824 5823 5821 5819 5817 5814 5812 5809 5807 5804 5801 5798 5795 5792 5789 5785 5782 5777 5773 5769 5766 5761 5757 5752 5747 5743 5738 5734 5729 5724 5719 5714 5710 5705 5700 5695 5690 5685 5679 5674 5669 5663 5657 5651 5645 5639 5633 5627 5621 5615 5609 5602 5595 5588 5580 5572 5565 5557 5547 5536 5526 5517 5508 5498 5487 5475 5462 5450 5441 5432 5424 5414 5405 5396 5387 5378 5369 5361 5354 5349
5829 5828 5828 5827 5826 5824 5823 5821 5819 5817 5815 5813 5811 5809 5806 5803 5800 5798 5795 5792 5789 5785 5782 5778 5774 5770 5766 5762 5758 5753 5749 5744 5739 5735 5730 5726 5721 5716 5711 5706 5701 5697 5691 5686 5681 5676 5670 5665 5659 5653 5647 5642 5636 5630 5624 5618 5612 5605 5598 5590 5583 5575 5568 5560 5552 5544 5535 5526 5516 5506 5496 5486 5475 5462 5450 5438 5429 5421 5412 5403 5394 5385 5376 5369 5361 5353 5347
5826 5825 5824 5824 5823 5821 5820 5818 5816 5814 5812 5810 5808 5805 5803 5800 5797 5794 5791 5788 5785 5782 5778 5774 5770 5766 5762 5758 5754 5750 5745 5740 5735 5731 5727 5722 5717 5712 5707 5702 5698 5693 5687 5682 5677 5672 5667 5662 5656 5650 5644 5638 5633 5627 5621 5615 5609 5603 5597 5589 5580 5573 5565 5558 5550 5542 5535 5526 5517 5507 5497 5486 5475 5463 5451 5439 5427 5416 5405 5396 5389 5381 5373 5366 5360 5353 5345
5823 5822 5822 5821 5820 5818 5817 5815 5813 5811 5809 5807 5805 5802 5799 5797 5793 5790 5787 5784 5781 5778 5774 5770 5766 5762 5758 5755 5750 5746 5741 5736 5731 5727 5722 5718 5713 5709 5704 5699 5694 5689 5684 5679 5674 5669 5663 5658 5652 5646 5640 5635 5630 5624 5617 5611 5605 5599 5593 5587 5580 5571 5563 5555 5546 5538 5529 5520 5511 5502 5492 5483 5472 5460 5448 5435 5424 5413 5401 5391 5382 5375 5367 5360 5355 5350 5345
5821 5820 5819 5818 5817 5815 5814 5812 5810 5808 5806 5804 5801 5799 5796 5793 5789 5786 5784 5781 5777 5774 5770 5766 5762 5758 5755 5751 5746 5742 5737 5732 5727 5723 5718 5714 5710 5705 5700 5695 5690 5685 5680 5675 5670 5665 5660 5654 5649 5643 5637 5631 5625 5619 5612 5606 5599 5593 5586 5580 5573 5565 5557 5549 5540 5531 5523 5514 5505 5497 5487 5478 5468 5457 5445 5432 5420 5410 5400 5389 5377 5368 5361 5353 5347 5343 5340
5818 5817 5816 5815 5814 5812 5811 5808 5806 5804 5802 5800 5798 5795 5792 5789 5786 5783 5780 5777 5773 5770 5766 5763 5759 5755 5751 5747 5742 5737 5733 5728 5723 5718 5714 5710 5705 5701 5696 5691 5686 5681 5676 5671 5666 5661 5655 5650 5644 5639 5633 5627 5621 5615 5609 5602 5595 5588 5581 5574 5567 5560 5552 5544 5535 5526 5518 5509 5500 5491 5483 5473 5463 5453 5443 5431 5417 5405 5396 5387 5376 5365 5357 5350 5344 5338 5335
5815 5814 5813 5812 5810 5809 5807 5805 5803 5801 5799 5796 5794 5791 5788 5785 5782 5779 5776 5772 5769 5765 5762 5759 5755 5751 5747 5743 5738 5733 5729 5724 5719 5714 5710 5705 5701 5697 5691 5687 5682 5677 5671 5666 5661 5655 5650 5646 5640 5634 5628 5622 5616 5610 5604 5597 5590 5583 5576 5569 5561 5554 5547 5539 5530 5521 5512 5503 5494 5485 5477 5468 5458 5448 5438 5429 5418 5405 5393 5383 5374 5363 5354 5348 5342 5337 5332
5812 5811 5810 5808 5807 5805 5803 5801 5799 5797 5795 5793 5790 5787 5784 5781 5778 5774 5771 5768 5764 5761 5758 5755 5751 5747 5743 5739 5734 5729 5724 5720 5715 5710 5705 5701 5697 5692 5687 5682 5677 5672 5667 5661 5656 5651 5646 5641 5636 5629 5623 5617 5612 5606 5599 5592 5585 5578 5570 5563 5555 5547 5540 5533 5524 5515 5506 5497 5488 5479 5471 5462 5453 5443 5434 5425 5416 5404 5390 5378 5368 5359 5350 5342 5336 5331 5327
5808 5807 5806 5805 5803 5801 5800 5798 5796 5794 5791 5789 5786 5783 5780 5777 5773 5770 5767 5763 5760 5758 5755 5752 5748 5744 5739 5735 5730 5725 5720 5715 5710 5705 5701 5696 5692 5688 5683 5678 5673 5668 5662 5656 5652 5646 5641 5636 5631 5625 5619 5613 5607 5601 5595 5588 5581 5574 5566 5559 5550 5542 5534 5526 5518 5510 5502 5493 5484 5475 5466 5457 5448 5439 5429 5419 5411 5402 5391 5378 5366 5356 5348 5340 5332 5326 5322
5804 5803 5802 5801 5799 5797 5795 5793 5791 5789 5787 5784 5782 5779 5776 5772 5769 5766 5762 5759 5756 5754 5751 5747 5743 5739 5735 5731 5726 5721 5716 5711 5706 5701 5696 5692 5688 5683 5678 5674 5669 5663 5657 5652 5646 5641 5636 5631 5626 5620 5614 5608 5602 5596 5590 5584 5577 5569 5562 5555 5547 5539 5531 5523 5515 5507 5498 5489 5480 5471 5463 5454 5445 5436 5426 5416 5407 5400 5393 5384 5371 5359 5349 5341 5334 5326 5320
5800 5799 5798 5796 5795 5793 5791 5789 5787 5785 5783 5780 5777 5775 5772 5768 5765 5761 5758 5755 5752 5750 5747 5743 5739 5734 5730 5726 5722 5717 5712 5707 5702 5697 5692 5688 5683 5678 5674 5669 5664 5659 5653 5648 5642 5637 5631 5626 5621 5615 5610 5604 5598 5592 5585 5579 5572 5565 5558 5551 5543 5536 5528 5519 5510 5501 5493 5484 5475 5466 5459 5451 5442 5433 5424 5416 5406 5397 5389 5382 5372 5360 5348 5339 5332 5326 5320